Torna al catalogo

STARLINK-33691

AttivoComunicazioniVLEO
NORAD 63462·PAYLOAD·🇺🇸 United States

Lanciato Apr 6, 2025 da Cape Canaveral Space Force Station

Loading…

Prossimi Passaggi (prossime 24 ore)

TLE

AggiornatoSource: CelesTrak SupGP

Epoca: Sep 15, 2026, 02:14 UTC

1 63462C 25070C   26258.09354167 -.00003137  00000+0 -11366-3 0  2586
2 63462  42.9995 269.8015 0001346 265.7323 226.0525 15.27573803    18

Traccia STARLINK-33691 in tempo reale con AllMySat

Download on the App Store